Location: Albany
(35.0170°S, 117.8920°E)
Time: 11:21:38
(UTC+08:00)

A-11 Canister half - Pass Details

Date: 30 January 2021
Orbit: 1516 x 1684 km, 47.2° (Epoch: 03 March)

Event Time Altitude Azimuth Distance (km) Brightness Sun altitude
Rises 03:52:34 0° 0° (N) 4,716 11.2 -17.3°
Reaches altitude 10° 03:56:54 10° 18° (NNE) 3,769 10.9 -16.6°
Maximum altitude 04:02:50 18° 57° (ENE) 3,203 10.9 -15.6°
Drops below altitude 10° 04:08:54 10° 96° (E) 3,874 12.1 -14.6°
Sets 04:13:22 0° 112° (ESE) 4,896 13.4 -13.9°
